Home   Weather   Alajuela   Past weeks

Flag for Costa Rica Past Weather in Alajuela, Costa Rica — Yesterday and Last 2 Weeks

Now
82 °F

Sunny.


Feels Like: 82 °F
Forecast: 66 / 83 °F
Wind: 15 mph from East

Location: Juan Santamaria

Current Time: Jan 16, 2017 at 1:30:55 pm

Latest Report: Jan 16, 2017 at 1:00 pm


Visibility: 10 mi

Pressure: 29.95 "Hg (26.87 "Hg at 955m altitude)

Humidity: 40%

Dew Point: 55 °F

Location of AlajuelaLocation

Past Weather in Alajuela — Graph

°F

Alajuela Temperature Yesterday

Maximum temperature yesterday: 81 °F (at 12:00 pm)
Minimum temperature yesterday: 66 °F (at 12:00 am)
Average temperature yesterday: 72 °F

High & Low Weather Summary for the Past Weeks

 TemperatureHumidityPressure
High86 °F (Jan 4, 12:00 pm)94% (Jan 4, 6:00 pm)30.10 "Hg (Jan 4, 6:00 pm)
Low64 °F (Jan 6, 2:00 am)31% (Jan 4, 1:00 pm)29.88 "Hg (Jan 4, 3:00 pm)
Average74 °F63%29.98 "Hg
* Reported Jan 1 12:00 pm — Jan 16 12:00 pm, Alajuela, Weather by CustomWeather, © 2017

Note: Actual official high and low records may vary slightly from our data, if they occured in-between our weather recording intervals... More about our weather records

Advertising

Alajuela Weather History for the Previous 24 Hours

Scroll right to see more
 ConditionsComfort  
Time TempWeatherWind HumidityBarometerVisibility
12:00 pm
Mon, Jan 16
82 °FPassing clouds.14 mph40%29.98 "HgN/A
11:00 am82 °FSunny.12 mph40%30.01 "Hg10 mi
10:00 am79 °FSunny.14 mph42%30.02 "Hg10 mi
9:00 am77 °FSunny.15 mph74%30.02 "Hg10 mi
8:00 am75 °FSunny.15 mph47%30.02 "Hg10 mi
7:00 am68 °FSunny.12 mph64%30.00 "Hg10 mi
6:00 am66 °FSunny.12 mph68%29.97 "Hg10 mi
5:00 am66 °FClear.16 mph68%29.95 "Hg10 mi
4:00 am68 °FClear.16 mph64%29.94 "Hg10 mi
3:00 am68 °FClear.15 mph64%29.94 "Hg10 mi
2:00 am68 °FClear.13 mph64%29.94 "Hg10 mi
1:00 am70 °FClear.17 mph60%29.95 "Hg10 mi
12:00 am70 °FClear.16 mph60%29.97 "Hg10 mi
11:00 pm
Sun, Jan 15
70 °FClear.17 mph64%29.98 "Hg10 mi
10:00 pm70 °FClear.16 mph64%29.99 "Hg10 mi
9:00 pm70 °FPassing clouds.17 mph69%29.98 "HgN/A
8:00 pm70 °FPassing clouds.21 mph69%29.97 "HgN/A
7:00 pm70 °FPassing clouds.17 mph69%29.96 "HgN/A
6:00 pm72 °FPassing clouds.16 mph57%29.94 "HgN/A
5:00 pm75 °FSunny.17 mph50%29.93 "Hg10 mi
4:00 pm79 °FPassing clouds.16 mph48%29.93 "HgN/A
3:00 pm81 °FPassing clouds.17 mph42%29.92 "HgN/A
2:00 pm81 °FSunny.16 mph32%29.93 "Hg10 mi
1:00 pm81 °FSunny.17 mph37%29.95 "Hg10 mi
Weather by CustomWeather, © 2017

See weather overviewHow to use our weather pages